[[{"header":{"parameterUnit":"m.s-1","parameterCategory":1,"la1":30.2992,"la2":30.254,"lo1":-89.0895,"lo2":-89.0443,"dy":0.0025,"dx":0.0025,"nx":19,"ny":19,"refTime":"2026-05-13T09:00:00:Z","depth":0,"parameterNumber":2,"parameterNumberName":"U-component_of_WINDS"},"data":[0,0,0,0.4875,0.4878,0.5005,0.5005,0.5155,0.5156,0,0,0,0,0,0,0,0,0,0,0,0.4826,0.4827,0.4875,0.4878,0.5004,0.5005,0.5155,0.5156,0,0,0,0,0,0,0,0,0,0,0,0.4826,0.4827,0.4828,0.4878,0.5004,0.5005,0.5154,0.5064,0,0,0,0,0,0,0,0,0,0,0.4944,0.4886,0.4827,0.4828,0.4879,0.5004,0.5005,0.506,0.507,0.5091,0,0.5103,0,0.5132,0.5165,0.5165,0,0,0,0.4888,0.4878,0.4922,0.4828,0.488,0.5004,0.495,0.5066,0.5077,0.5104,0.5106,0.5112,0.5134,0.5166,0.5166,0.5248,0.5248,0,0,0.4881,0.4844,0.4914,0.4928,0.4904,0.4946,0.4954,0.5073,0.5074,0.5106,0.5115,0.5137,0.5167,0.5168,0.5249,0.5248,0,0,0,0.4854,0.4839,0.488,0.4922,0.4945,0.4949,0.4959,0.5068,0.5085,0.5117,0.5138,0.5167,0.5169,0.5249,0.5248,0.5208,0,0,0,0.485,0.4823,0.4877,0.4856,0.4943,0.5008,0.4951,0.5077,0.5091,0.5138,0.5167,0.517,0.5249,0.5249,0.5209,0.5195,0,0,0,0.4822,0.482,0.4834,0.4853,0.4906,0.5007,0.503,0.5081,0.5104,0.5165,0.5171,0.5249,0.5249,0.5211,0.5197,0.5206,0,0,0,0.4783,0.4798,0.4833,0.4859,0.4905,0.4979,0.503,0.5088,0.5136,0.5168,0.5249,0.5248,0.5211,0.5199,0.5207,0.5206,0.5202,0,0,0.4782,0.4796,0.4815,0.485,0.4908,0.4963,0.5018,0.5099,0.514,0.5211,0.5214,0.5209,0.5198,0.5206,0.5193,0.5189,0,0,0,0.4802,0.4815,0.4838,0.4881,0.4941,0.4992,0.5068,0.5098,0.5159,0.5167,0.5216,0.521,0.5217,0.5218,0.5215,0.5224,0.5247,0.5247,0.5248,0.4749,0.4798,0.4832,0.4897,0.4938,0.5016,0.5055,0.511,0.515,0.5161,0.5182,0.5167,0.5167,0.5165,0.5174,0.5186,0.5186,0.5186,0.5186,0.4752,0.4777,0.4829,0.488,0.4934,0.4979,0.5056,0.5083,0.5135,0.5155,0.5164,0.5181,0.516,0.517,0.5183,0.5184,0.5184,0.5184,0.5184,0.4722,0.4743,0.4777,0.4844,0.4891,0.4959,0.5006,0.5054,0.5101,0.5109,0.5138,0.5138,0.5146,0.5119,0.5119,0.5119,0.5119,0.5119,0.5119,0.4676,0.4717,0.4748,0.4813,0.4847,0.4899,0.4979,0.5015,0.5068,0.5101,0.5101,0.5141,0.5148,0.5148,0.5119,0.5119,0.5119,0.5119,0.5119,0.466,0.4672,0.472,0.4753,0.4835,0.4879,0.4941,0.5011,0.5049,0.5071,0.511,0.5107,0.5126,0.5129,0.513,0.5098,0.5098,0.5098,0.5098,0.4634,0.4648,0.4709,0.476,0.4817,0.4877,0.4934,0.4998,0.5066,0.5093,0.5105,0.5111,0.5111,0.5131,0.5134,0.5135,0.5105,0.5105,0.5105,0.4627,0.4649,0.4686,0.4749,0.4817,0.4875,0.4931,0.4991,0.5071,0.5106,0.5115,0.5115,0.5125,0.5125,0.5159,0.5162,0.5166,0,0]},{"header":{"parameterUnit":"m.s-1","parameterCategory":1,"la1":30.2992,"la2":30.254,"lo1":-89.0895,"lo2":-89.0443,"dy":0.0025,"dx":0.0025,"nx":19,"ny":19,"refTime":"2026-05-13T09:00:00:Z","depth":0,"parameterNumber":3,"parameterNumberName":"V-component_of_WINDS"},"data":[0,0,0,-1.9732,-1.9733,-1.9785,-1.9785,-1.9834,-1.9834,0,0,0,0,0,0,0,0,0,0,0,-1.9704,-1.9704,-1.9732,-1.9733,-1.9785,-1.9785,-1.9834,-1.9834,0,0,0,0,0,0,0,0,0,0,0,-1.9704,-1.9704,-1.9704,-1.9733,-1.9785,-1.9785,-1.9834,-1.9801,0,0,0,0,0,0,0,0,0,0,-1.9754,-1.9715,-1.9704,-1.9704,-1.9733,-1.9785,-1.9785,-1.98,-1.9803,-1.9802,0,-1.9797,0,-1.9816,-1.9836,-1.9836,0,0,0,-1.9742,-1.9712,-1.9738,-1.9704,-1.9734,-1.9785,-1.9764,-1.9802,-1.9805,-1.9806,-1.9798,-1.98,-1.9817,-1.9836,-1.9836,-1.9804,-1.9803,0,0,-1.9739,-1.9707,-1.9735,-1.974,-1.973,-1.9762,-1.9766,-1.9804,-1.9793,-1.9798,-1.9802,-1.9818,-1.9836,-1.9837,-1.9804,-1.9803,0,0,0,-1.9725,-1.9704,-1.9729,-1.9737,-1.9748,-1.9764,-1.9767,-1.9791,-1.9802,-1.9802,-1.9819,-1.9837,-1.9837,-1.9805,-1.9804,-1.9747,0,0,0,-1.9723,-1.9696,-1.9728,-1.9708,-1.9747,-1.977,-1.9753,-1.98,-1.9805,-1.9818,-1.9837,-1.9837,-1.9805,-1.9804,-1.975,-1.9725,0,0,0,-1.9705,-1.9694,-1.9697,-1.9706,-1.9728,-1.977,-1.9784,-1.9802,-1.9814,-1.9836,-1.9837,-1.9806,-1.9804,-1.9752,-1.9729,-1.971,0,0,0,-1.9676,-1.9642,-1.9696,-1.9665,-1.9727,-1.9734,-1.9784,-1.979,-1.9802,-1.9837,-1.9805,-1.9804,-1.9753,-1.9732,-1.9713,-1.969,-1.9676,0,0,-1.9616,-1.9634,-1.9619,-1.9668,-1.9658,-1.9729,-1.9711,-1.975,-1.9781,-1.9795,-1.9794,-1.9749,-1.973,-1.9711,-1.9609,-1.9598,0,0,0,-1.9589,-1.9578,-1.9582,-1.9593,-1.9625,-1.9651,-1.9698,-1.9714,-1.9728,-1.9781,-1.9736,-1.9726,-1.9716,-1.9707,-1.9698,-1.9693,-1.9797,-1.9798,-1.9798,-1.9456,-1.9501,-1.9481,-1.9533,-1.9543,-1.9595,-1.9608,-1.9639,-1.9676,-1.9666,-1.967,-1.9604,-1.9591,-1.9585,-1.9579,-1.966,-1.966,-1.9659,-1.9659,-1.9375,-1.9368,-1.9426,-1.9427,-1.9475,-1.9476,-1.9526,-1.9555,-1.9565,-1.9602,-1.9596,-1.9635,-1.9571,-1.9569,-1.9655,-1.9656,-1.9657,-1.9657,-1.9657,-1.9295,-1.93,-1.9322,-1.9347,-1.9361,-1.9415,-1.9424,-1.9466,-1.9505,-1.9499,-1.9512,-1.9513,-1.9522,-1.9502,-1.9502,-1.9501,-1.9501,-1.9501,-1.9501,-1.9204,-1.9231,-1.9234,-1.9269,-1.9285,-1.9311,-1.9367,-1.9383,-1.9413,-1.9444,-1.9444,-1.9486,-1.9556,-1.9574,-1.9498,-1.9498,-1.9499,-1.9499,-1.9499,-1.9108,-1.9138,-1.9142,-1.9158,-1.9206,-1.9221,-1.9276,-1.9308,-1.9328,-1.9333,-1.9378,-1.9421,-1.9443,-1.945,-1.9466,-1.9366,-1.9366,-1.9366,-1.9366,-1.9043,-1.9059,-1.9075,-1.91,-1.9128,-1.918,-1.9187,-1.9232,-1.9282,-1.9299,-1.9319,-1.9343,-1.9349,-1.9367,-1.9376,-1.9392,-1.9275,-1.9275,-1.9275,-1.8988,-1.901,-1.9006,-1.9058,-1.9101,-1.9137,-1.9146,-1.9173,-1.9236,-1.9272,-1.9313,-1.9317,-1.9356,-1.9366,-1.9402,-1.9415,-1.9444,0,0]}]]